timestamp,wind_dir_avg,wind_spd_max_dir,wind_spd_avg,wind_spd_gust,battery_voltage,lat,long
2018-11-05 00:00:00+00:00,291.0,291.0,11.72,13.72,,47.59359,-54.27349
2018-11-05 00:10:00+00:00,289.0,291.0,10.63,12.57,,47.59359,-54.27349
2018-11-05 00:20:00+00:00,295.0,298.0,13.46,16.44,,47.59359,-54.27349
2018-11-05 00:30:00+00:00,276.0,276.0,9.17,10.58,,47.59359,-54.27349
2018-11-05 00:40:00+00:00,290.0,288.0,9.88,12.81,,47.59359,-54.27349
2018-11-05 00:50:00+00:00,297.0,286.0,11.61,15.45,,47.59359,-54.27349
2018-11-05 01:00:00+00:00,289.0,287.0,13.06,14.79,,47.59359,-54.27349
2018-11-05 01:10:00+00:00,289.0,291.0,10.33,12.83,,47.59359,-54.27349
2018-11-05 01:20:00+00:00,292.0,287.0,11.42,14.05,,47.59359,-54.27349
2018-11-05 01:30:00+00:00,291.0,301.0,11.17,12.96,,47.59359,-54.27349
2018-11-05 01:40:00+00:00,287.0,284.0,9.96,13.21,,47.59359,-54.27349
2018-11-05 01:50:00+00:00,291.0,290.0,8.27,9.75,,47.59359,-54.27349
2018-11-05 02:00:00+00:00,281.0,282.0,8.48,10.88,,47.59359,-54.27349
2018-11-05 02:10:00+00:00,290.0,291.0,9.2,11.48,,47.59359,-54.27349
2018-11-05 02:20:00+00:00,296.0,303.0,8.0,11.26,,47.59359,-54.27349
2018-11-05 02:30:00+00:00,300.0,302.0,7.89,9.15,,47.59359,-54.27349
2018-11-05 02:40:00+00:00,292.0,299.0,7.65,8.92,,47.59359,-54.27349
2018-11-05 02:50:00+00:00,284.0,286.0,9.64,11.7,,47.59359,-54.27349
2018-11-05 03:00:00+00:00,296.0,304.0,8.76,10.95,,47.59359,-54.27349
2018-11-05 03:10:00+00:00,301.0,301.0,9.68,12.44,,47.59359,-54.27349
2018-11-05 03:20:00+00:00,299.0,308.0,8.88,10.59,,47.59359,-54.27349
2018-11-05 03:30:00+00:00,305.0,305.0,8.95,10.79,,47.59359,-54.27349
2018-11-05 03:40:00+00:00,302.0,306.0,8.97,10.57,,47.59359,-54.27349
2018-11-05 03:50:00+00:00,309.0,307.0,9.85,11.6,,47.59359,-54.27349
2018-11-05 04:00:00+00:00,305.0,304.0,9.8,12.33,,47.59359,-54.27349
2018-11-05 04:10:00+00:00,308.0,304.0,8.95,11.65,,47.59359,-54.27349
2018-11-05 04:20:00+00:00,308.0,308.0,9.15,11.56,,47.59359,-54.27349
2018-11-05 04:30:00+00:00,308.0,314.0,9.05,11.26,,47.59359,-54.27349
2018-11-05 04:40:00+00:00,309.0,314.0,9.89,11.4,,47.59359,-54.27349
2018-11-05 04:50:00+00:00,321.0,322.0,10.61,12.04,,47.59359,-54.27349
2018-11-05 05:00:00+00:00,312.0,308.0,7.72,8.78,,47.59359,-54.27349
2018-11-05 05:10:00+00:00,321.0,323.0,8.38,9.72,,47.59359,-54.27349
2018-11-05 05:20:00+00:00,322.0,329.0,9.33,11.24,,47.59359,-54.27349
2018-11-05 05:30:00+00:00,324.0,321.0,7.72,8.86,,47.59359,-54.27349
2018-11-05 05:40:00+00:00,326.0,329.0,9.94,11.92,,47.59359,-54.27349
2018-11-05 05:50:00+00:00,324.0,324.0,6.19,7.21,,47.59359,-54.27349
2018-11-05 06:00:00+00:00,332.0,331.0,8.82,11.06,,47.59359,-54.27349
2018-11-05 06:10:00+00:00,328.0,337.0,7.27,8.95,,47.59359,-54.27349
2018-11-05 06:20:00+00:00,314.0,313.0,7.59,10.06,,47.59359,-54.27349
2018-11-05 06:30:00+00:00,330.0,331.0,7.35,8.57,,47.59359,-54.27349
2018-11-05 06:40:00+00:00,323.0,325.0,6.59,7.64,,47.59359,-54.27349
2018-11-05 06:50:00+00:00,323.0,319.0,5.12,6.42,,47.59359,-54.27349
2018-11-05 07:00:00+00:00,318.0,339.0,4.81,5.63,,47.59359,-54.27349
2018-11-05 07:10:00+00:00,322.0,326.0,5.67,6.8,,47.59359,-54.27349
2018-11-05 07:20:00+00:00,336.0,341.0,5.45,7.1,,47.59359,-54.27349
2018-11-05 07:30:00+00:00,338.0,344.0,7.47,9.61,,47.59359,-54.27349
2018-11-05 07:40:00+00:00,332.0,314.0,5.76,6.98,,47.59359,-54.27349
2018-11-05 07:50:00+00:00,326.0,324.0,4.8,6.14,,47.59359,-54.27349
2018-11-05 08:00:00+00:00,334.0,342.0,6.0,7.36,,47.59359,-54.27349
2018-11-05 08:10:00+00:00,339.0,329.0,4.95,6.25,,47.59359,-54.27349
2018-11-05 08:20:00+00:00,325.0,330.0,5.89,6.95,,47.59359,-54.27349
2018-11-05 08:30:00+00:00,330.0,331.0,6.46,7.52,,47.59359,-54.27349
2018-11-05 08:40:00+00:00,331.0,328.0,6.04,7.15,,47.59359,-54.27349
2018-11-05 08:50:00+00:00,311.0,312.0,7.94,9.7,,47.59359,-54.27349
2018-11-05 09:00:00+00:00,316.0,311.0,8.2,9.82,,47.59359,-54.27349
2018-11-05 09:10:00+00:00,314.0,317.0,7.47,8.75,,47.59359,-54.27349
2018-11-05 09:20:00+00:00,317.0,319.0,7.83,9.76,,47.59359,-54.27349
2018-11-05 09:30:00+00:00,324.0,323.0,7.62,8.58,,47.59359,-54.27349
2018-11-05 09:40:00+00:00,320.0,321.0,7.5,8.76,,47.59359,-54.27349
2018-11-05 09:50:00+00:00,324.0,330.0,7.4,8.88,,47.59359,-54.27349
2018-11-05 10:00:00+00:00,323.0,314.0,6.61,7.76,,47.59359,-54.27349
2018-11-05 10:10:00+00:00,332.0,331.0,6.69,8.22,,47.59359,-54.27349
2018-11-05 10:20:00+00:00,329.0,330.0,6.49,8.34,,47.59359,-54.27349
2018-11-05 10:30:00+00:00,329.0,331.0,6.19,7.33,,47.59359,-54.27349
2018-11-05 10:40:00+00:00,328.0,330.0,7.38,8.92,,47.59359,-54.27349
2018-11-05 10:50:00+00:00,330.0,331.0,5.89,6.74,,47.59359,-54.27349
2018-11-05 11:00:00+00:00,344.0,343.0,7.78,8.97,,47.59359,-54.27349
2018-11-05 11:10:00+00:00,336.0,352.0,7.55,8.82,,47.59359,-54.27349
2018-11-05 11:20:00+00:00,335.0,340.0,7.48,9.09,,47.59359,-54.27349
2018-11-05 11:30:00+00:00,327.0,330.0,7.62,9.2,,47.59359,-54.27349
2018-11-05 11:40:00+00:00,321.0,320.0,8.44,11.25,,47.59359,-54.27349
2018-11-05 11:50:00+00:00,328.0,319.0,9.52,13.03,,47.59359,-54.27349
2018-11-05 12:00:00+00:00,338.0,341.0,9.36,10.75,,47.59359,-54.27349
2018-11-05 12:10:00+00:00,329.0,333.0,8.31,10.23,,47.59359,-54.27349
2018-11-05 12:20:00+00:00,341.0,347.0,7.67,9.56,,47.59359,-54.27349
2018-11-05 12:30:00+00:00,326.0,336.0,7.11,8.6,,47.59359,-54.27349
2018-11-05 12:40:00+00:00,328.0,328.0,8.41,10.22,,47.59359,-54.27349
2018-11-05 12:50:00+00:00,323.0,320.0,6.25,7.48,,47.59359,-54.27349
2018-11-05 13:00:00+00:00,333.0,332.0,7.55,8.6,,47.59359,-54.27349
2018-11-05 13:10:00+00:00,344.0,345.0,8.58,9.74,,47.59359,-54.27349
2018-11-05 13:20:00+00:00,332.0,324.0,7.45,9.13,,47.59359,-54.27349
2018-11-05 13:30:00+00:00,328.0,324.0,8.21,9.56,,47.59359,-54.27349
2018-11-05 13:40:00+00:00,339.0,335.0,8.09,10.27,,47.59359,-54.27349
2018-11-05 13:50:00+00:00,333.0,348.0,7.52,8.58,,47.59359,-54.27349
2018-11-05 14:00:00+00:00,336.0,339.0,9.42,10.59,,47.59359,-54.27349
2018-11-05 14:10:00+00:00,340.0,338.0,11.2,12.45,,47.59359,-54.27349
2018-11-05 14:20:00+00:00,340.0,339.0,9.89,12.24,,47.59359,-54.27349
2018-11-05 14:30:00+00:00,342.0,345.0,8.5,10.75,,47.59359,-54.27349
2018-11-05 14:40:00+00:00,1.0,7.0,8.31,10.16,,47.59359,-54.27349
2018-11-05 14:50:00+00:00,341.0,341.0,8.97,9.98,,47.59359,-54.27349
2018-11-05 15:00:00+00:00,357.0,353.0,8.48,9.68,,47.59359,-54.27349
2018-11-05 15:10:00+00:00,348.0,341.0,9.09,10.88,,47.59359,-54.27349
2018-11-05 15:20:00+00:00,348.0,351.0,10.1,11.33,,47.59359,-54.27349
2018-11-05 15:30:00+00:00,359.0,3.0,7.89,9.04,,47.59359,-54.27349
2018-11-05 15:40:00+00:00,355.0,0.0,7.39,9.27,,47.59359,-54.27349
2018-11-05 15:50:00+00:00,344.0,345.0,8.55,9.54,,47.59359,-54.27349
2018-11-05 16:00:00+00:00,342.0,343.0,8.98,9.85,,47.59359,-54.27349
2018-11-05 16:10:00+00:00,328.0,326.0,7.53,8.09,,47.59359,-54.27349
2018-11-05 16:20:00+00:00,333.0,336.0,8.6,10.07,,47.59359,-54.27349
2018-11-05 16:30:00+00:00,340.0,336.0,7.87,8.9,,47.59359,-54.27349
2018-11-05 16:40:00+00:00,312.0,319.0,6.79,7.65,,47.59359,-54.27349
2018-11-05 16:50:00+00:00,332.0,326.0,5.49,6.32,,47.59359,-54.27349
2018-11-05 17:00:00+00:00,313.0,312.0,6.55,7.51,,47.59359,-54.27349
2018-11-05 17:10:00+00:00,345.0,344.0,5.58,6.5,,47.59359,-54.27349
2018-11-05 17:20:00+00:00,337.0,339.0,5.47,6.46,,47.59359,-54.27349
2018-11-05 17:30:00+00:00,351.0,351.0,5.48,6.7,,47.59359,-54.27349
2018-11-05 17:40:00+00:00,328.0,333.0,6.2,6.92,,47.59359,-54.27349
2018-11-05 17:50:00+00:00,326.0,322.0,4.88,6.01,,47.59359,-54.27349
2018-11-05 18:00:00+00:00,1.0,2.0,7.0,7.84,,47.59359,-54.27349
2018-11-05 18:10:00+00:00,4.0,359.0,5.93,7.22,,47.59359,-54.27349
2018-11-05 18:20:00+00:00,337.0,345.0,4.68,5.67,,47.59359,-54.27349
2018-11-05 18:30:00+00:00,329.0,337.0,4.47,4.92,,47.59359,-54.27349
2018-11-05 18:40:00+00:00,319.0,320.0,4.48,5.38,,47.59359,-54.27349
2018-11-05 18:50:00+00:00,330.0,343.0,2.97,3.98,,47.59359,-54.27349
2018-11-05 19:00:00+00:00,338.0,324.0,3.53,4.55,,47.59359,-54.27349
2018-11-05 19:10:00+00:00,322.0,327.0,5.16,6.07,,47.59359,-54.27349
2018-11-05 19:20:00+00:00,308.0,304.0,6.18,7.15,,47.59359,-54.27349
2018-11-05 19:30:00+00:00,309.0,306.0,4.78,5.78,,47.59359,-54.27349
2018-11-05 19:40:00+00:00,316.0,326.0,4.28,5.37,,47.59359,-54.27349
2018-11-05 19:50:00+00:00,323.0,326.0,3.92,4.43,,47.59359,-54.27349
2018-11-05 20:00:00+00:00,318.0,316.0,3.41,3.83,,47.59359,-54.27349
2018-11-05 20:10:00+00:00,325.0,324.0,3.33,4.1,,47.59359,-54.27349
2018-11-05 20:20:00+00:00,317.0,330.0,2.66,4.0,,47.59359,-54.27349
2018-11-05 20:30:00+00:00,326.0,322.0,2.83,3.27,,47.59359,-54.27349
2018-11-05 20:40:00+00:00,315.0,300.0,1.97,2.39,,47.59359,-54.27349
2018-11-05 20:50:00+00:00,288.0,284.0,1.97,2.35,,47.59359,-54.27349
2018-11-05 21:00:00+00:00,301.0,300.0,2.78,3.19,,47.59359,-54.27349
2018-11-05 21:10:00+00:00,291.0,288.0,2.39,3.01,,47.59359,-54.27349
2018-11-05 21:20:00+00:00,306.0,309.0,2.91,3.34,,47.59359,-54.27349
2018-11-05 21:30:00+00:00,295.0,301.0,3.47,4.07,,47.59359,-54.27349
2018-11-05 21:40:00+00:00,318.0,319.0,3.58,3.94,,47.59359,-54.27349
2018-11-05 21:50:00+00:00,306.0,308.0,2.84,3.41,,47.59359,-54.27349
2018-11-05 22:00:00+00:00,304.0,314.0,3.3,3.8,,47.59359,-54.27349
2018-11-05 22:10:00+00:00,315.0,320.0,2.61,3.14,,47.59359,-54.27349
2018-11-05 22:20:00+00:00,316.0,313.0,2.96,3.26,,47.59359,-54.27349
2018-11-05 22:30:00+00:00,304.0,304.0,3.01,3.42,,47.59359,-54.27349
2018-11-05 22:40:00+00:00,317.0,315.0,2.48,2.95,,47.59359,-54.27349
2018-11-05 22:50:00+00:00,301.0,309.0,2.59,3.09,,47.59359,-54.27349
2018-11-05 23:00:00+00:00,310.0,312.0,3.23,3.82,,47.59359,-54.27349
2018-11-05 23:10:00+00:00,299.0,295.0,3.72,4.49,,47.59359,-54.27349
2018-11-05 23:20:00+00:00,306.0,304.0,3.2,3.77,,47.59359,-54.27349
2018-11-05 23:30:00+00:00,315.0,319.0,3.5,3.88,,47.59359,-54.27349
2018-11-05 23:40:00+00:00,323.0,326.0,3.3,3.86,,47.59359,-54.27349
2018-11-05 23:50:00+00:00,315.0,318.0,2.92,3.43,,47.59359,-54.27349
